Regional Weather Roundup
Issued by NWS

Home | Current Version | Previous Version | Text Only | Print | Product List | Glossary On
Versions: 1 2 3 4 5 6 7 8 9 10 11 12 13 14 15 16 17 18 19 20 21 22 23 24 25 26 27 28
000
ASUS45 KCYS 191810
RWRWY

WYOMING REGIONAL WEATHER ROUNDUP
NATIONAL WEATHER SERVICE CHEYENNE WY
1100 AM MST SUN NOV 19 2017

NOTE:  "FAIR" INDICATES FEW OR NO CLOUDS BELOW 12,000 FEET
WITH NO SIGNIFICANT WEATHER AND/OR OBSTRUCTIONS TO VISIBILITY.

WYZ001-191900-
YELLOWSTONE NATIONAL PARK

CITY           SKY/WX    TMP DP  RH WIND       PRES   REMARKS
LK YELLOWSTONE   N/A     23  14  68 CALM      30.17F
6HR MIN TEMP:  10; 6HR MAX TEMP:  23;

W YELLOWSTONE  NOT AVBL

$$
WYZ002>013-054>058-071-098>099-191900-
NORTHERN WYOMING

CITY           SKY/WX    TMP DP  RH WIND       PRES   REMARKS
JACKSON        FLURRIES  25  14  63 SE3         N/A
CODY           FAIR      35  15  44 N5        29.99F WCI  31
GREYBULL       FAIR      29  21  72 CALM      30.03F
6HR MIN TEMP:  17; 6HR MAX TEMP:  29;

WORLAND        FAIR      31  21  66 CALM      30.03F
6HR MIN TEMP:  15; 6HR MAX TEMP:  31;

SHERIDAN       FAIR      41  25  53 N3        29.90F
6HR MIN TEMP:  18; 6HR MAX TEMP:  41;

BUFFALO        FAIR      38  21  50 CALM      29.91F
6HR MIN TEMP:  29; 6HR MAX TEMP:  43;

GILLETTE       FAIR      47  15  27 SW18      29.91F
6HR MIN TEMP:  35; 6HR MAX TEMP:  47;

HULETT         FAIR      41  19  42 W8        29.94F
NEWCASTLE      FAIR      37  19  48 SE12      29.99F WCI  30

$$
WYZ014>020-022>026-101>103-191900-
CENTRAL WYOMING

CITY           SKY/WX    TMP DP  RH WIND       PRES   REMARKS
BIG PINEY      FAIR      18  14  84 W5        30.22F WCI  11
6HR MIN TEMP:   3; 6HR MAX TEMP:  19;

PINEDALE       FAIR      28  18  64 NW6       30.21F WCI  22
DUBOIS         FAIR      37   5  25 N18G30    30.05F WCI  27
LANDER         FAIR      25  17  72 CALM      30.07F
6HR MIN TEMP:  19; 6HR MAX TEMP:  25;

RIVERTON       FAIR      28  19  69 NW6       30.08S WCI  22
6HR MIN TEMP:  17; 6HR MAX TEMP:  28;

CASPER         FAIR      40  17  39 SW24G32   30.05F WCI  29
6HR MIN TEMP:  29; 6HR MAX TEMP:  40;

DOUGLAS        FAIR      45  22  40 W9        30.02F
6HR MIN TEMP:  24; 6HR MAX TEMP:  47;


$$
WYZ021-027>030-104>119-191900-
SOUTHERN WYOMING

CITY           SKY/WX    TMP DP  RH WIND       PRES   REMARKS
EVANSTON       FAIR      20  17  88 CALM      30.23S
6HR MIN TEMP:  16; 6HR MAX TEMP:  22;

FORT BRIDGER   FAIR      23  14  68 SW6       30.25F WCI  16
ROCK SPRINGS   FAIR      23  15  71 CALM      30.23S
6HR MIN TEMP:  14; 6HR MAX TEMP:  23;

DIXON          FAIR      25  16  68 CALM      30.29F
RAWLINS        FAIR      36  16  44 S15G22    30.19F WCI  27
6HR MIN TEMP:  19; 6HR MAX TEMP:  36;

SARATOGA       FAIR      32  16  51 S10       30.22S WCI  24
LARAMIE        FAIR      37  14  38 SW17      30.14S WCI  27
6HR MIN TEMP:  21; 6HR MAX TEMP:  37;

CHEYENNE       FAIR      50   6  16 W30G41    30.08F
6HR MIN TEMP:  32; 6HR MAX TEMP:  50;

TORRINGTON     FAIR      53  11  18 W17       30.03F
6HR MIN TEMP:  17; 6HR MAX TEMP:  53;

PINE BLUFFS    FAIR      52   9  17 W14       30.08F

$$




USA.gov is the U.S. government's official web portal to all federal, state and local government web resources and services.